| time (UTC) | temp F | wind direction | speed knots | gust knots | rain 1hr in | rain 24hr in | rain mn in | humidity % | barometer mb |
| 20260506100619 | 52 | 238 | 0.9 | 4.3 | 0.00 | 0.00 | 0.00 | 33 | 1015.6 |
| 20260506095615 | 52 | 232 | 0.9 | 4.3 | 0.00 | 0.00 | 0.00 | 32 | 1015.6 |
| 20260506095113 | 52 | 61 | 0.9 | 7.0 | 0.00 | 0.00 | 0.00 | 32 | 1015.6 |
| 20260506094614 | 52 | 216 | 0.9 | 7.0 | 0.00 | 0.00 | 0.00 | 32 | 1015.6 |
| 20260506093612 | 52 | 210 | 1.7 | 7.0 | 0.00 | 0.00 | 0.00 | 32 | 1015.4 |
| 20260506093113 | 52 | 221 | 0.9 | 7.0 | 0.00 | 0.00 | 0.00 | 32 | 1015.3 |
| 20260506092615 | 52 | 270 | 0.9 | 5.2 | 0.00 | 0.00 | 0.00 | 32 | 1015.4 |
| 20260506092110 | 52 | 144 | 0.9 | 3.5 | 0.00 | 0.00 | 0.00 | 31 | 1015.3 |
| 20260506091612 | 53 | 266 | 1.7 | 5.2 | 0.00 | 0.00 | 0.00 | 31 | 1015.3 |
| 20260506091112 | 53 | 252 | 0.9 | 5.2 | 0.00 | 0.00 | 0.00 | 31 | 1015.4 |
| 20260506090608 | 52 | 230 | 0.9 | 7.0 | 0.00 | 0.00 | 0.00 | 31 | 1015.3 |
| 20260506090107 | 52 | 211 | 1.7 | 7.0 | 0.00 | 0.00 | 0.00 | 31 | 1015.3 |
| 20260506085606 | 52 | 277 | 0.9 | 6.1 | 0.00 | 0.00 | 0.00 | 31 | 1015.3 |
| 20260506085107 | 52 | 193 | 0.9 | 3.5 | 0.00 | 0.00 | 0.00 | 31 | 1015.3 |
| 20260506084109 | 52 | 98 | 0.9 | 3.5 | 0.00 | 0.00 | 0.00 | 31 | 1015.3 |
| 20260506083601 | 52 | 190 | 0.9 | 3.5 | 0.00 | 0.00 | 0.00 | 30 | 1015.2 |
| 20260506083055 | 53 | 198 | 0.9 | 4.3 | 0.00 | 0.00 | 0.00 | 31 | 1015.3 |
| 20260506082551 | 53 | 262 | 0.9 | 4.3 | 0.00 | 0.00 | 0.00 | 30 | 1015.3 |
| 20260506082050 | 53 | 252 | 0.9 | 4.3 | 0.00 | 0.00 | 0.00 | 31 | 1015.3 |
| 20260506081554 | 53 | 143 | 0.9 | 5.2 | 0.00 | 0.00 | 0.00 | 30 | 1015.3 |
| 20260506081047 | 53 | 259 | 0.9 | 5.2 | 0.00 | 0.00 | 0.00 | 30 | 1015.3 |
| 20260506080546 | 52 | 274 | 0.9 | 2.6 | 0.00 | 0.00 | 0.00 | 30 | 1015.4 |
| 20260506073047 | 53 | 221 | 0.9 | 6.1 | 0.00 | 0.00 | 0.00 | 29 | 1015.3 |
| 20260506072048 | 53 | 253 | 0.9 | 5.2 | 0.00 | 0.00 | 0.00 | 29 | 1015.3 |
| 20260506071548 | 53 | 288 | 0.9 | 5.2 | 0.00 | 0.00 | 0.00 | 29 | 1015.1 |
| 20260506070542 | 53 | 306 | 1.7 | 7.8 | 0.00 | 0.00 | 0.00 | 29 | 1015.1 |
| 20260506062458 | 54 | 90 | 0.9 | 8.7 | 0.00 | 0.00 | 0.00 | 28 | 1014.9 |
| 20260506061947 | 54 | 252 | 0.9 | 8.7 | 0.00 | 0.00 | 0.00 | 28 | 1014.9 |
| 20260506061442 | 54 | 161 | 1.7 | 6.1 | 0.00 | 0.00 | 0.00 | 28 | 1014.9 |
| 20260506060936 | 54 | 268 | 1.7 | 7.0 | 0.00 | 0.00 | 0.00 | 28 | 1014.9 |
| 20260506060429 | 54 | 250 | 0.9 | 7.0 | 0.00 | 0.00 | 0.00 | 28 | 1014.8 |
| 20260506051332 | 54 | 231 | 0.9 | 4.3 | 0.00 | 0.00 | 0.00 | 28 | 1014.5 |
| 20260506050823 | 54 | 176 | 1.7 | 5.2 | 0.00 | 0.00 | 0.00 | 28 | 1014.5 |
| 20260506050319 | 54 | 244 | 1.7 | 7.0 | 0.00 | 0.00 | 0.00 | 28 | 1014.5 |
| 20260506044759 | 54 | 208 | 1.7 | 6.1 | 0.00 | 0.00 | 0.00 | 29 | 1014.4 |
| 20260506044255 | 54 | 154 | 1.7 | 6.1 | 0.00 | 0.00 | 0.00 | 28 | 1014.4 |
| 20260506043242 | 54 | 249 | 1.7 | 6.1 | 0.00 | 0.00 | 0.00 | 28 | 1014.3 |
| 20260506041723 | 55 | 291 | 2.6 | 7.8 | 0.00 | 0.00 | 0.00 | 27 | 1014.2 |
| 20260506041218 | 55 | 248 | 3.5 | 7.0 | 0.00 | 0.00 | 0.00 | 27 | 1014.1 |
| 20260506040712 | 55 | 316 | 3.5 | 8.7 | 0.00 | 0.00 | 0.00 | 27 | 1014.2 |
| 20260506040206 | 55 | 238 | 3.5 | 9.6 | 0.00 | 0.00 | 0.00 | 27 | 1014.0 |
| 20260506035700 | 55 | 226 | 3.5 | 9.6 | 0.00 | 0.00 | 0.00 | 27 | 1013.8 |
| 20260506035154 | 55 | 148 | 2.6 | 8.7 | 0.00 | 0.00 | 0.00 | 26 | 1013.8 |
| 20260506034650 | 55 | 221 | 2.6 | 8.7 | 0.00 | 0.00 | 0.00 | 26 | 1013.7 |
| 20260506034141 | 55 | 240 | 2.6 | 8.7 | 0.00 | 0.00 | 0.00 | 26 | 1013.7 |
| 20260506033636 | 55 | 300 | 1.7 | 8.7 | 0.00 | 0.00 | 0.00 | 26 | 1013.6 |
| 20260506033130 | 55 | 285 | 1.7 | 11.3 | 0.00 | 0.00 | 0.00 | 26 | 1013.5 |
| 20260506032629 | 55 | 181 | 2.6 | 11.3 | 0.00 | 0.00 | 0.00 | 26 | 1013.5 |
| 20260506032129 | 56 | 207 | 2.6 | 9.6 | 0.00 | 0.00 | 0.00 | 26 | 1013.4 |
| 20260506031628 | 56 | 177 | 1.7 | 6.1 | 0.00 | 0.00 | 0.00 | 26 | 1013.3 |
| 20260506031129 | 56 | 248 | 2.6 | 7.8 | 0.00 | 0.00 | 0.00 | 26 | 1013.3 |
| 20260506030628 | 56 | 226 | 3.5 | 11.3 | 0.00 | 0.00 | 0.00 | 26 | 1013.3 |
| 20260506030126 | 56 | 257 | 3.5 | 11.3 | 0.00 | 0.00 | 0.00 | 26 | 1013.2 |
| 20260506025131 | 56 | 278 | 2.6 | 7.8 | 0.00 | 0.00 | 0.00 | 26 | 1013.0 |
| 20260506024628 | 56 | 242 | 2.6 | 9.6 | 0.00 | 0.00 | 0.00 | 26 | 1013.2 |
| 20260506024129 | 56 | 210 | 2.6 | 9.6 | 0.00 | 0.00 | 0.00 | 26 | 1013.0 |
| 20260506023630 | 56 | 219 | 2.6 | 7.8 | 0.00 | 0.00 | 0.00 | 26 | 1012.9 |
| 20260506023127 | 57 | 237 | 3.5 | 9.6 | 0.00 | 0.00 | 0.00 | 26 | 1012.8 |
| 20260506022624 | 57 | 326 | 3.5 | 9.6 | 0.00 | 0.00 | 0.00 | 25 | 1012.8 |
| 20260506022126 | 57 | 274 | 2.6 | 6.1 | 0.00 | 0.00 | 0.00 | 26 | 1012.8 |
| 20260506021125 | 57 | 258 | 3.5 | 9.6 | 0.00 | 0.00 | 0.00 | 25 | 1012.6 |
| 20260506020624 | 57 | 191 | 3.5 | 9.6 | 0.00 | 0.00 | 0.00 | 25 | 1012.4 |
| 20260506020126 | 58 | 272 | 3.5 | 10.4 | 0.00 | 0.00 | 0.00 | 25 | 1012.1 |
| 20260506015625 | 58 | 220 | 3.5 | 10.4 | 0.00 | 0.00 | 0.00 | 24 | 1012.1 |
| 20260506015125 | 58 | 242 | 3.5 | 9.6 | 0.00 | 0.00 | 0.00 | 24 | 1012.0 |
| 20260506014624 | 59 | 269 | 5.2 | 13.9 | 0.00 | 0.00 | 0.00 | 23 | 1011.8 |
| 20260506013627 | 60 | 136 | 4.3 | 9.6 | 0.00 | 0.00 | 0.00 | 22 | 1011.8 |
| 20260506012124 | 61 | 167 | 3.5 | 10.4 | 0.00 | 0.00 | 0.00 | 21 | 1011.7 |
| 20260506011628 | 62 | 232 | 3.5 | 7.8 | 0.00 | 0.00 | 0.00 | 21 | 1011.7 |
| 20260506011125 | 62 | 281 | 3.5 | 8.7 | 0.00 | 0.00 | 0.00 | 21 | 1011.7 |
| 20260506010123 | 61 | 218 | 5.2 | 12.2 | 0.00 | 0.00 | 0.00 | 22 | 1011.6 |
| 20260506005626 | 62 | 287 | 4.3 | 12.2 | 0.00 | 0.00 | 0.00 | 21 | 1011.6 |
| 20260506005125 | 63 | 236 | 2.6 | 7.0 | 0.00 | 0.00 | 0.00 | 20 | 1011.5 |
| 20260506004625 | 63 | 236 | 3.5 | 8.7 | 0.00 | 0.00 | 0.00 | 20 | 1011.3 |
| 20260506003106 | 62 | 290 | 4.3 | 11.3 | 0.00 | 0.00 | 0.00 | 20 | 1011.2 |
| 20260506002107 | 62 | 235 | 5.2 | 11.3 | 0.00 | 0.00 | 0.00 | 21 | 1011.2 |
| 20260506001604 | 61 | 252 | 3.5 | 11.3 | 0.00 | 0.00 | 0.00 | 22 | 1011.1 |
| 20260506001104 | 61 | 274 | 4.3 | 11.3 | 0.00 | 0.00 | 0.00 | 22 | 1011.0 |
| 20260506000606 | 61 | 301 | 5.2 | 12.2 | 0.00 | 0.00 | 0.00 | 22 | 1011.0 |
| 20260506000100 | 62 | 245 | 4.3 | 12.2 | 0.00 | 0.00 | 0.00 | 21 | 1011.1 |
| 20260505235559 | 64 | 286 | 3.5 | 11.3 | 0.00 | 0.00 | 0.00 | 19 | 1011.1 |
| 20260505235100 | 63 | 185 | 4.3 | 11.3 | 0.00 | 0.00 | 0.00 | 19 | 1011.0 |
| 20260505234600 | 63 | 197 | 4.3 | 11.3 | 0.00 | 0.00 | 0.00 | 20 | 1010.9 |
| 20260505233559 | 62 | 255 | 3.5 | 13.9 | 0.00 | 0.00 | 0.00 | 20 | 1010.9 |
| 20260505233057 | 64 | 216 | 3.5 | 10.4 | 0.00 | 0.00 | 0.00 | 19 | 1010.9 |
| 20260505232557 | 64 | 241 | 4.3 | 18.2 | 0.00 | 0.00 | 0.00 | 19 | 1010.9 |
| 20260505232057 | 63 | 309 | 5.2 | 18.2 | 0.00 | 0.00 | 0.00 | 20 | 1010.9 |
| 20260505231556 | 63 | 231 | 3.5 | 10.4 | 0.00 | 0.00 | 0.00 | 20 | 1010.8 |
| 20260505230056 | 63 | 272 | 4.3 | 13.0 | 0.00 | 0.00 | 0.00 | 21 | 1010.9 |
| 20260505225553 | 61 | 141 | 3.5 | 7.8 | 0.00 | 0.00 | 0.00 | 22 | 1011.0 |
| 20260505225058 | 61 | 259 | 5.2 | 13.9 | 0.00 | 0.00 | 0.00 | 21 | 1011.0 |
| 20260505224549 | 63 | 333 | 4.3 | 13.9 | 0.00 | 0.00 | 0.00 | 20 | 1011.0 |
| 20260505223553 | 62 | 264 | 3.5 | 9.6 | 0.00 | 0.00 | 0.00 | 21 | 1011.1 |
| 20260505223049 | 62 | 229 | 3.5 | 11.3 | 0.00 | 0.00 | 0.00 | 21 | 1011.0 |
| 20260505222548 | 63 | 217 | 5.2 | 11.3 | 0.00 | 0.00 | 0.00 | 21 | 1011.1 |
| 20260505222056 | 63 | 239 | 4.3 | 10.4 | 0.00 | 0.00 | 0.00 | 21 | 1011.0 |
| 20260505221547 | 62 | 190 | 4.3 | 11.3 | 0.00 | 0.00 | 0.00 | 23 | 1011.1 |
| 20260505220547 | 62 | 216 | 4.3 | 13.0 | 0.00 | 0.00 | 0.00 | 22 | 1011.3 |
| 20260505215546 | 62 | 274 | 3.5 | 9.6 | 0.00 | 0.00 | 0.00 | 22 | 1011.3 |
| 20260505215046 | 61 | 230 | 5.2 | 13.9 | 0.00 | 0.00 | 0.00 | 23 | 1011.3 |
| 20260505214043 | 62 | 215 | 3.5 | 13.0 | 0.00 | 0.00 | 0.00 | 22 | 1011.6 |
| 20260505213543 | 63 | 328 | 2.6 | 8.7 | 0.00 | 0.00 | 0.00 | 22 | 1011.7 |
| 20260505213043 | 62 | 203 | 2.6 | 9.6 | 0.00 | 0.00 | 0.00 | 22 | 1011.6 |
| 20260505212040 | 64 | 222 | 4.3 | 11.3 | 0.00 | 0.00 | 0.00 | 22 | 1011.8 |
| 20260505211532 | 64 | 207 | 4.3 | 9.6 | 0.00 | 0.00 | 0.00 | 22 | 1012.0 |
| 20260505211026 | 63 | 245 | 5.2 | 9.6 | 0.00 | 0.00 | 0.00 | 23 | 1012.0 |
| 20260505210521 | 63 | 181 | 3.5 | 9.6 | 0.00 | 0.00 | 0.00 | 23 | 1012.0 |
| 20260505210014 | 63 | 334 | 2.6 | 9.6 | 0.00 | 0.00 | 0.00 | 24 | 1012.0 |
| 20260505205002 | 62 | 228 | 3.5 | 8.7 | 0.00 | 0.00 | 0.00 | 25 | 1012.3 |
| 20260505204457 | 62 | 141 | 2.6 | 8.7 | 0.00 | 0.00 | 0.00 | 25 | 1012.1 |
| 20260505203444 | 60 | 160 | 0.9 | 7.0 | 0.00 | 0.00 | 0.00 | 27 | 1012.3 |
| 20260505202938 | 60 | 91 | 2.6 | 7.0 | 0.00 | 0.00 | 0.00 | 27 | 1012.0 |
| 20260505202432 | 61 | 140 | 2.6 | 10.4 | 0.00 | 0.00 | 0.00 | 27 | 1012.1 |
| 20260505201927 | 60 | 174 | 1.7 | 10.4 | 0.00 | 0.00 | 0.00 | 27 | 1012.3 |
| 20260505200917 | 59 | 228 | 2.6 | 6.1 | 0.00 | 0.00 | 0.00 | 29 | 1012.3 |
| 20260505200411 | 59 | 251 | 2.6 | 10.4 | 0.00 | 0.00 | 0.00 | 30 | 1012.4 |
| 20260505195356 | 59 | 294 | 2.6 | 10.4 | 0.00 | 0.00 | 0.00 | 31 | 1012.5 |
| 20260505194851 | 58 | 240 | 2.6 | 8.7 | 0.00 | 0.00 | 0.00 | 31 | 1012.4 |
| 20260505194344 | 58 | 179 | 2.6 | 7.8 | 0.00 | 0.00 | 0.00 | 32 | 1012.4 |
| 20260505193838 | 58 | 219 | 3.5 | 8.7 | 0.00 | 0.00 | 0.00 | 31 | 1012.5 |
| 20260505193332 | 59 | 255 | 2.6 | 8.7 | 0.00 | 0.00 | 0.00 | 31 | 1012.5 |
| 20260505192826 | 59 | 205 | 1.7 | 7.8 | 0.00 | 0.00 | 0.00 | 31 | 1012.5 |
| 20260505192320 | 58 | 282 | 2.6 | 7.0 | 0.00 | 0.00 | 0.00 | 32 | 1012.5 |
| 20260505191814 | 58 | 158 | 3.5 | 7.8 | 0.00 | 0.00 | 0.00 | 33 | 1012.6 |
| 20260505191308 | 57 | 231 | 3.5 | 7.8 | 0.00 | 0.00 | 0.00 | 33 | 1012.5 |
| 20260505190802 | 57 | 168 | 3.5 | 8.7 | 0.00 | 0.00 | 0.00 | 33 | 1012.5 |
| 20260505190256 | 58 | 247 | 2.6 | 8.7 | 0.00 | 0.00 | 0.00 | 33 | 1012.5 |
| 20260505185750 | 58 | 276 | 3.5 | 8.7 | 0.00 | 0.00 | 0.00 | 33 | 1012.5 |
| 20260505185244 | 58 | 210 | 2.6 | 8.7 | 0.00 | 0.00 | 0.00 | 33 | 1012.6 |
| 20260505184738 | 58 | 232 | 2.6 | 7.8 | 0.00 | 0.00 | 0.00 | 32 | 1012.6 |
| 20260505183727 | 57 | 281 | 2.6 | 6.1 | 0.00 | 0.00 | 0.00 | 33 | 1012.6 |
| 20260505183221 | 57 | 6 | 3.5 | 8.7 | 0.00 | 0.00 | 0.00 | 33 | 1012.5 |
| 20260505182717 | 57 | 238 | 3.5 | 9.6 | 0.00 | 0.00 | 0.00 | 32 | 1012.6 |
| 20260505182208 | 57 | 199 | 2.6 | 9.6 | 0.00 | 0.00 | 0.00 | 33 | 1012.5 |
| 20260505181156 | 57 | 198 | 1.7 | 7.8 | 0.00 | 0.00 | 0.00 | 33 | 1012.6 |
| 20260505180651 | 58 | 265 | 1.7 | 6.1 | 0.00 | 0.00 | 0.00 | 33 | 1012.5 |
| 20260505175639 | 57 | 226 | 2.6 | 10.4 | 0.00 | 0.00 | 0.00 | 33 | 1012.5 |
| 20260505175135 | 58 | 232 | 1.7 | 8.7 | 0.00 | 0.00 | 0.00 | 31 | 1012.6 |
| 20260505174627 | 59 | 223 | 2.6 | 7.8 | 0.00 | 0.00 | 0.00 | 31 | 1012.4 |
| 20260505174121 | 59 | 214 | 4.3 | 16.5 | 0.00 | 0.00 | 0.00 | 31 | 1012.5 |
| 20260505173615 | 59 | 182 | 3.5 | 16.5 | 0.00 | 0.00 | 0.00 | 30 | 1012.4 |
| 20260505173108 | 60 | 212 | 4.3 | 12.2 | 0.00 | 0.00 | 0.00 | 30 | 1012.3 |
| 20260505172612 | 60 | 205 | 5.2 | 13.9 | 0.00 | 0.00 | 0.00 | 29 | 1012.1 |
| 20260505171608 | 60 | 143 | 5.2 | 13.0 | 0.00 | 0.00 | 0.00 | 29 | 1012.3 |
| 20260505170606 | 59 | 198 | 5.2 | 14.8 | 0.00 | 0.00 | 0.00 | 31 | 1012.3 |
| 20260505170110 | 58 | 146 | 4.3 | 11.3 | 0.00 | 0.00 | 0.00 | 32 | 1012.1 |
| 20260505165107 | 59 | 124 | 4.3 | 13.9 | 0.00 | 0.00 | 0.00 | 32 | 1012.3 |
| 20260505164605 | 59 | 129 | 4.3 | 13.9 | 0.00 | 0.00 | 0.00 | 31 | 1012.3 |
| 20260505164111 | 58 | 122 | 5.2 | 13.0 | 0.00 | 0.00 | 0.00 | 31 | 1012.3 |
| 20260505163605 | 58 | 114 | 5.2 | 13.0 | 0.00 | 0.00 | 0.00 | 32 | 1012.3 |
| 20260505163109 | 58 | 205 | 5.2 | 15.6 | 0.00 | 0.00 | 0.00 | 31 | 1012.1 |
| 20260505162607 | 58 | 197 | 5.2 | 15.6 | 0.00 | 0.00 | 0.00 | 32 | 1012.1 |
| 20260505162106 | 58 | 137 | 6.1 | 13.9 | 0.00 | 0.00 | 0.00 | 32 | 1012.1 |
| 20260505161109 | 58 | 236 | 2.6 | 11.3 | 0.00 | 0.00 | 0.00 | 33 | 1012.1 |
| 20260505160600 | 58 | 236 | 2.6 | 11.3 | 0.00 | 0.00 | 0.00 | 32 | 1012.3 |
| 20260505153055 | 57 | 110 | 2.6 | 12.2 | 0.00 | 0.00 | 0.00 | 35 | 1012.3 |
| 20260505152552 | 56 | 107 | 4.3 | 12.2 | 0.00 | 0.00 | 0.00 | 36 | 1012.1 |
| 20260505152057 | 55 | 128 | 3.5 | 11.3 | 0.00 | 0.00 | 0.00 | 36 | 1012.0 |
| 20260505151554 | 56 | 94 | 3.5 | 10.4 | 0.00 | 0.00 | 0.00 | 36 | 1012.0 |
| 20260505151055 | 55 | 233 | 3.5 | 10.4 | 0.00 | 0.00 | 0.00 | 36 | 1012.1 |
| 20260505140549 | 53 | 121 | 1.7 | 7.0 | 0.00 | 0.00 | 0.00 | 41 | 1011.9 |
| 20260505124540 | 47 | 236 | 1.7 | 6.1 | 0.00 | 0.00 | 0.00 | 49 | 1011.7 |
| 20260505124038 | 47 | 144 | 1.7 | 6.1 | 0.00 | 0.00 | 0.00 | 49 | 1011.6 |
| 20260505123540 | 47 | 203 | 1.7 | 6.1 | 0.00 | 0.00 | 0.00 | 49 | 1011.5 |
| 20260505122034 | 47 | 187 | 2.6 | 7.8 | 0.00 | 0.00 | 0.00 | 49 | 1011.6 |
| 20260505121035 | 47 | 193 | 3.5 | 10.4 | 0.00 | 0.00 | 0.00 | 49 | 1011.5 |
| 20260505120539 | 47 | 201 | 3.5 | 10.4 | 0.00 | 0.00 | 0.00 | 49 | 1011.5 |
| 20260505115035 | 47 | 179 | 1.7 | 4.3 | 0.00 | 0.00 | 0.00 | 49 | 1011.8 |
| 20260505113540 | 47 | 217 | 0.9 | 5.2 | 0.00 | 0.00 | 0.00 | 49 | 1011.7 |
| 20260505113032 | 47 | 96 | 0.9 | 5.2 | 0.00 | 0.00 | 0.00 | 49 | 1011.8 |
| 20260505112020 | 48 | 178 | 1.7 | 4.3 | 0.00 | 0.00 | 0.00 | 48 | 1011.8 |
| 20260505111512 | 48 | 210 | 2.6 | 7.0 | 0.00 | 0.00 | 0.00 | 48 | 1011.8 |
| 20260505111009 | 48 | 194 | 2.6 | 7.0 | 0.00 | 0.00 | 0.00 | 48 | 1011.9 |
| 20260505110503 | 48 | 161 | 2.6 | 5.2 | 0.00 | 0.00 | 0.00 | 48 | 1011.9 |
| 20260505101915 | 48 | 88 | 1.7 | 7.8 | 0.00 | 0.00 | 0.00 | 47 | 1011.7 |